STARLINK-1696

Last updated on Fri Nov 06 2020 00:02:03 GMT+0000 (Coordinated Universal Time)

1 46545U 20070P 20310.83334491 -.01083214 00000-0 -21048-1 0 9991 2 46545 52.9999 293.1691 0001174 66.4803 244.8739 15.49906353 5568

Satellite not in orbit